Weather History for Springfield, CO

Change the Weather History Date:

Thursday, November 15, 2012

  Actual Average Record
Temperature  
Mean Temperature 42 °F -  
Max Temperature 58 °F 57 °F 78 °F (1998)
Min Temperature 25 °F 26 °F 15 °F (2005)
Degree Days  
Heating Degree Days 23 23  
Month to date heating degree days 237 302  
Since 1 July heating degree days 684 747  
Cooling Degree Days 0 0  
Month to date cooling degree days 0 0  
Year to date cooling degree days 1422 1028  
Moisture  
Dew Point 22 °F    
Average Humidity 50    
Maximum Humidity 69    
Minimum Humidity 30    
Precipitation  
Precipitation 0.00 in 0.02 in 0.04 in (2001)
Month to date precipitation 0.00 0.33  
Year to date precipitation 8.07 16.79  
Sea Level Pressure  
Sea Level Pressure 30.24 in    
Wind  
Wind Speed 15 mph (North)    
Max Wind Speed 26 mph    
Max Gust Speed 31 mph    
T = Trace of Precipitation, MM = Missing Value Source: NWS Daily Summary

Daily Weather History Graph

Daily Weather History Graph

Search for Another Location

Airport:

Trip Planner

Search our weather history database for the weather conditions in past years. The results will help you decide how hot, cold, wet, or windy it might be!

Date:

Astronomy

Nov. 15, 2012 Rise Set
Actual Time 6:30 AM MST 4:39 PM MST
Civil Twilight 6:02 AM MST 5:07 PM MST
Nautical Twilight 5:30 AM MST 5:39 PM MST
Astronomical Twilight 4:59 AM MST 6:09 PM MST
Moon 8:26 AM MST (11/15) 6:35 PM MST (11/15)
Length of Visible Light 11h 05m
Length of Day
10h 09m
Waxing Crescent, 5% of the Moon is Illuminated
Nov 15
Waxing Crescent
Nov 20
First Quarter
Nov 28
Full
Dec 6
Last Quarter
Dec 13
New

Hourly Weather History & Observations

Time (MST) Temp. Windchill Dew Point Humidity Pressure Visibility Wind Dir Wind Speed Gust Speed Precip Events Conditions
12:56 AM 39.0 °F 29.9 °F 12.0 °F 33% 29.98 in - NNW 17.3 mph - N/A   Unknown
1:56 AM 39.0 °F 29.9 °F 12.9 °F 34% 30.01 in - NNW 17.3 mph - N/A   Unknown
2:56 AM 39.9 °F 30.0 °F 12.9 °F 33% 30.01 in - NNW 21.9 mph - N/A   Unknown
3:56 AM 39.0 °F 28.8 °F 14.0 °F 36% 30.06 in - NNW 21.9 mph - N/A   Unknown
4:56 AM 37.0 °F 26.2 °F 15.1 °F 41% 30.11 in - North 21.9 mph - N/A   Unknown
5:56 AM 36.0 °F 24.2 °F 17.1 °F 46% 30.16 in - North 24.2 mph - N/A   Unknown
6:56 AM 36.0 °F 25.3 °F 21.9 °F 57% 30.21 in - North 19.6 mph 26.5 mph N/A   Unknown
7:56 AM 41.0 °F 30.9 °F 27.0 °F 57% 30.25 in - North 24.2 mph 29.9 mph N/A   Unknown
8:56 AM 46.0 °F 37.8 °F 28.0 °F 50% 30.28 in - North 23.0 mph - N/A   Unknown
9:56 AM 50.0 °F - 28.0 °F 43% 30.30 in - North 24.2 mph - N/A   Unknown
10:56 AM 52.0 °F - 28.0 °F 40% 30.29 in - North 20.7 mph 29.9 mph N/A   Unknown
11:56 AM 54.0 °F - 28.9 °F 38% 30.25 in - North 21.9 mph 28.8 mph N/A   Unknown
12:56 PM 55.9 °F - 27.0 °F 33% 30.22 in - NNE 20.7 mph 28.8 mph N/A   Unknown
1:56 PM 57.9 °F - 26.1 °F 30% 30.21 in - NNE 20.7 mph 29.9 mph N/A   Unknown
2:56 PM 55.9 °F - 25.0 °F 30% 30.23 in - NE 19.6 mph 25.3 mph N/A   Unknown
3:56 PM 53.1 °F - 25.0 °F 34% 30.26 in - ENE 15.0 mph - N/A   Unknown
4:56 PM 44.1 °F 39.0 °F 24.1 °F 45% 30.31 in - NE 9.2 mph - N/A   Unknown
5:56 PM 39.0 °F 33.4 °F 23.0 °F 53% 30.35 in - NNE 8.1 mph - N/A   Unknown
6:56 PM 37.0 °F 32.4 °F 23.0 °F 57% 30.37 in - ENE 5.8 mph - N/A   Unknown
7:56 PM 37.0 °F - 24.1 °F 59% 30.36 in - Calm Calm - N/A   Unknown
8:56 PM 37.0 °F 34.5 °F 24.1 °F 59% 30.35 in - ESE 3.5 mph - N/A   Unknown
9:56 PM 30.9 °F 27.5 °F 21.9 °F 69% 30.37 in - NNW 3.5 mph - N/A   Unknown
10:56 PM 26.1 °F - 18.0 °F 71% 30.38 in - Calm Calm - N/A   Unknown
11:56 PM 30.0 °F 25.2 °F 21.0 °F 69% 30.35 in - NW 4.6 mph - N/A   Unknown